Location: Recife
(8.0585°S, 34.8848°W)
Time: 12:52:25
(UTC-03:00)

Vanguard 1 - Pass Details

Date: 19 April 2026
Orbit: 654 x 3817 km, 34.3° (Epoch: 11 May)

Event Time Altitude Azimuth Distance (km) Brightness Sun altitude
Rises 03:23:32 0° 332° (NNW) 6,869 14.2 -29.7°
Reaches altitude 10° 03:33:58 10° 1° (N) 4,857 13.7 -27.1°
Maximum altitude 03:37:12 11° 16° (NNE) 4,405 13.6 -26.3°
Drops below altitude 10° 03:40:03 10° 31° (NNE) 4,167 13.7 -25.6°
Sets 03:46:21 0° 64° (ENE) 4,393 14.6 -24.1°
